This is the latest recevied weather packets stored in our database for station/object KI4MRC. If no packets are shown the sender has not sent any weather packets the latest 10 day(s).
| Time | Temp. | Humidity | Pressure | Rain* | Wind** | Luminosity | Snow |
|---|---|---|---|---|---|---|---|
| 1778018676 | 27.22° C | 73% | 1014.1 hPa | 0 mm | - | 86 W/m² | - |
| 1778018373 | 27.22° C | 73% | 1014.3 hPa | 0 mm | - | 112 W/m² | - |
| 1778018071 | 27.22° C | 73% | 1014 hPa | 0 mm | - | 89 W/m² | - |
| 1778017769 | 27.22° C | 73% | 1014.2 hPa | 0 mm | - | 77 W/m² | - |
| 1778017467 | 27.22° C | 71% | 1014 hPa | 0 mm | - | 94 W/m² | - |
| 1778017164 | 27.22° C | 71% | 1014 hPa | 0 mm | - | 138 W/m² | - |
| 1778016861 | 27.22° C | 71% | 1013.8 hPa | 0 mm | - | 98 W/m² | - |
| 1778016557 | 27.22° C | 72% | 1013.9 hPa | 0 mm | - | 124 W/m² | - |
| 1778016254 | 27.22° C | 71% | 1013.6 hPa | 0 mm | - | 75 W/m² | - |
| 1778015951 | 27.78° C | 72% | 1013.6 hPa | 0 mm | - | 99 W/m² | - |
| 1778015649 | 27.78° C | 72% | 1013.5 hPa | 0 mm | - | 91 W/m² | - |
| 1778015344 | 27.78° C | 73% | 1013.5 hPa | 0 mm | - | 80 W/m² | - |
| 1778015042 | 27.78° C | 71% | 1013.6 hPa | 0 mm | - | 101 W/m² | - |
| 1778014739 | 27.78° C | 70% | 1013.7 hPa | 0 mm | - | 116 W/m² | - |
| 1778014437 | 27.78° C | 69% | 1013.9 hPa | 0 mm | - | 136 W/m² | - |
| 1778014133 | 27.78° C | 69% | 1013.7 hPa | 0 mm | - | 137 W/m² | - |
| 1778013831 | 28.33° C | 69% | 1013.7 hPa | 0 mm | - | 119 W/m² | - |
| 1778013528 | 28.33° C | 68% | 1013.7 hPa | 0 mm | - | 128 W/m² | - |
| 1778013224 | 28.33° C | 68% | 1013.9 hPa | 0 mm | - | 148 W/m² | - |
| 1778012921 | 28.33° C | 69% | 1013.9 hPa | 0 mm | - | 216 W/m² | - |
| 1778012617 | 28.33° C | 68% | 1013.9 hPa | 0 mm | - | 136 W/m² | - |
| 1778012314 | 28.33° C | 68% | 1013.9 hPa | 0 mm | - | 133 W/m² | - |
| 1778012011 | 28.33° C | 68% | 1013.9 hPa | 0 mm | - | 133 W/m² | - |
| 1778011710 | 28.89° C | 67% | 1014 hPa | 0 mm | - | 138 W/m² | - |
| 1778011406 | 28.89° C | 68% | 1014 hPa | 0 mm | - | 214 W/m² | - |
* Rain latest hour (hover to see other rain measurements)
** Current wind speed in m/s (hover to see current wind gust speed)